User: anonymous   Login
Location: Unspecified
(0.0000°N, 0.0000°E)
Time: 06:31:37
(UTC+02:00)
Language:

GPS 2-12 Rocket1 - Orbit

View from above orbital plane
View from above orbital plane
View from above satellite
View from above satellite

Ground track
Ground track

The orbit data is extracted from the following two-line orbital elements,

1 21891U 92009B   17267.41232510 +.00000672 +00000-0 +31455-4 0  9999
2 21891 019.9970 292.3830 0046935 224.5803 135.0833 14.82923275360090
Epoch (UTC): 24 September 2017 09:53:44
Eccentricity: 0.0046935
inclination: 19.9970°
perigee height: 587 km
apogee height: 653 km
right ascension of ascending node: 292.3830°
argument of perigee: 224.5803°
revolutions per day: 14.82923275
mean anomaly at epoch: 135.0833°
orbit number at epoch: 36009

The dashed part of the orbit path shows where the satellite is in the earth's shadow,  

DLR